Location: Umburanas
(4.5000°S, 37.9667°W)
Time: 09:33:25
(UTC+00:00)

COSMOS 2428 - Pass Details

Date: 19 November 2019
Orbit: 844 x 858 km, 70.9° (Epoch: 09 December)

Event Time Altitude Azimuth Distance (km) Brightness Sun altitude
Rises 22:20:51 0° 204° (SSW) 3,407 6.5 -27.1°
Reaches altitude 10° 22:23:21 10° 207° (SSW) 2,468 5.7 -27.7°
Maximum altitude 22:28:53 56° 285° (WNW) 992 3.2 -28.9°
Enters shadow 22:29:54 49° 324° (NW) 1,076 3.2 -29.2°
